| time (UTC) | temp F | wind direction | speed knots | gust knots | rain 1hr in | rain 24hr in | rain mn in | humidity % | barometer mb |
| 20260509040026 | 69 | 56 | 3.5 | 4.3 | 0.00 | 0.42 | 0.42 | 91 | 1010.9 |
| 20260509035526 | 69 | 53 | 2.6 | 4.3 | 0.00 | 0.42 | 0.42 | 90 | 1010.6 |
| 20260509035026 | 69 | 122 | 3.5 | 4.3 | 0.00 | 0.42 | 0.42 | 90 | 1010.3 |
| 20260509034526 | 69 | 182 | 3.5 | 6.1 | 0.00 | 0.42 | 0.42 | 90 | 1010.1 |
| 20260509034026 | 69 | 127 | 4.3 | 7.0 | 0.00 | 0.42 | 0.42 | 90 | 1010.1 |
| 20260509033526 | 69 | 136 | 4.3 | 7.8 | 0.00 | 0.42 | 0.42 | 90 | 1009.9 |
| 20260509033026 | 69 | 150 | 7.0 | 9.6 | 0.00 | 0.42 | 0.42 | 89 | 1009.8 |
| 20260509032526 | 69 | 127 | 7.8 | 9.6 | 0.00 | 0.42 | 0.42 | 89 | 1009.9 |
| 20260509031526 | 69 | 0 | 0.0 | 10.4 | 0.00 | 0.42 | 0.42 | 89 | 1009.7 |
| 20260509025526 | 70 | 106 | 10.4 | 12.2 | 0.00 | 0.42 | 0.42 | 87 | 1010.0 |
| 20260509024526 | 70 | 98 | 9.6 | 12.2 | 0.00 | 0.42 | 0.42 | 88 | 1010.3 |
| 20260509024026 | 69 | 77 | 7.0 | 12.2 | 0.00 | 0.42 | 0.42 | 88 | 1010.4 |
| 20260509023526 | 69 | 43 | 10.4 | 12.2 | 0.00 | 0.42 | 0.42 | 89 | 1010.4 |
| 20260509023026 | 69 | 48 | 7.8 | 9.6 | 0.00 | 0.42 | 0.42 | 90 | 1010.4 |
| 20260509022527 | 69 | 38 | 7.0 | 9.6 | 0.00 | 0.42 | 0.42 | 90 | 1010.3 |
| 20260509022026 | 69 | 39 | 7.0 | 9.6 | 0.00 | 0.42 | 0.42 | 90 | 1010.0 |
| 20260509021526 | 69 | 39 | 6.1 | 9.6 | 0.00 | 0.42 | 0.42 | 88 | 1009.6 |
| 20260509021026 | 69 | 97 | 7.8 | 9.6 | 0.00 | 0.42 | 0.42 | 88 | 1008.9 |
| 20260509020526 | 70 | 116 | 7.8 | 9.6 | 0.00 | 0.42 | 0.42 | 87 | 1008.6 |
| 20260509020026 | 70 | 136 | 7.8 | 9.6 | 0.00 | 0.42 | 0.42 | 87 | 1008.4 |
| 20260509015527 | 70 | 0 | 0.0 | 10.4 | 0.00 | 0.42 | 0.42 | 86 | 1008.1 |
| 20260509015026 | 70 | 0 | 0.0 | 10.4 | 0.00 | 0.42 | 0.42 | 86 | 1008.0 |
| 20260509014526 | 70 | 146 | 9.6 | 10.4 | 0.00 | 0.42 | 0.42 | 85 | 1008.0 |
| 20260509014026 | 70 | 136 | 8.7 | 10.4 | 0.00 | 0.42 | 0.42 | 84 | 1008.1 |
| 20260509013526 | 71 | 157 | 7.8 | 10.4 | 0.00 | 0.42 | 0.42 | 83 | 1008.1 |
| 20260509013026 | 71 | 0 | 0.0 | 9.6 | 0.00 | 0.42 | 0.42 | 83 | 1008.1 |
| 20260509012026 | 71 | 181 | 7.8 | 9.6 | 0.00 | 0.42 | 0.42 | 81 | 1008.1 |
| 20260509011526 | 72 | 188 | 8.7 | 9.6 | 0.00 | 0.42 | 0.42 | 80 | 1008.3 |
| 20260509011026 | 72 | 178 | 7.8 | 9.6 | 0.00 | 0.42 | 0.42 | 80 | 1008.5 |
| 20260509010526 | 72 | 167 | 4.3 | 9.6 | 0.00 | 0.42 | 0.42 | 79 | 1008.5 |
| 20260509010026 | 73 | 166 | 5.2 | 7.8 | 0.00 | 0.42 | 0.42 | 79 | 1008.5 |
| 20260509005526 | 73 | 178 | 4.3 | 7.8 | 0.00 | 0.42 | 0.42 | 79 | 1008.6 |
| 20260509004526 | 73 | 197 | 7.8 | 8.7 | 0.00 | 0.42 | 0.42 | 78 | 1008.7 |
| 20260509003526 | 73 | 200 | 6.1 | 9.6 | 0.00 | 0.42 | 0.42 | 77 | 1008.6 |
| 20260509003026 | 73 | 173 | 9.6 | 9.6 | 0.00 | 0.42 | 0.42 | 76 | 1008.5 |
| 20260509002526 | 74 | 170 | 7.0 | 9.6 | 0.00 | 0.42 | 0.42 | 75 | 1008.4 |
| 20260509002026 | 74 | 172 | 7.0 | 9.6 | 0.00 | 0.42 | 0.42 | 75 | 1008.4 |
| 20260509001526 | 74 | 170 | 7.0 | 9.6 | 0.00 | 0.42 | 0.42 | 74 | 1008.4 |
| 20260509001027 | 74 | 197 | 8.7 | 9.6 | 0.00 | 0.42 | 0.42 | 74 | 1008.3 |
| 20260509000526 | 74 | 195 | 7.8 | 9.6 | 0.00 | 0.42 | 0.42 | 73 | 1008.2 |
| 20260509000026 | 75 | 157 | 9.6 | 10.4 | 0.00 | 0.42 | 0.42 | 72 | 1008.1 |
| 20260508235026 | 75 | 177 | 10.4 | 12.2 | 0.00 | 0.42 | 0.42 | 71 | 1008.0 |
| 20260508234526 | 75 | 180 | 9.6 | 12.2 | 0.00 | 0.42 | 0.42 | 70 | 1008.0 |
| 20260508234026 | 75 | 188 | 9.6 | 12.2 | 0.00 | 0.42 | 0.42 | 69 | 1008.0 |
| 20260508233526 | 75 | 179 | 8.7 | 12.2 | 0.00 | 0.42 | 0.42 | 69 | 1008.2 |
| 20260508232526 | 75 | 160 | 7.0 | 11.3 | 0.00 | 0.42 | 0.42 | 69 | 1008.3 |
| 20260508232027 | 76 | 175 | 9.6 | 11.3 | 0.00 | 0.42 | 0.42 | 68 | 1008.4 |
| 20260508231526 | 76 | 171 | 9.6 | 11.3 | 0.00 | 0.42 | 0.42 | 67 | 1008.4 |
| 20260508231026 | 76 | 143 | 6.1 | 10.4 | 0.00 | 0.42 | 0.42 | 68 | 1008.4 |
| 20260508230526 | 76 | 203 | 7.0 | 10.4 | 0.00 | 0.42 | 0.42 | 68 | 1008.4 |
| 20260508230026 | 76 | 201 | 8.7 | 10.4 | 0.00 | 0.42 | 0.42 | 68 | 1008.5 |
| 20260508225526 | 76 | 169 | 6.1 | 11.3 | 0.00 | 0.42 | 0.42 | 67 | 1008.5 |
| 20260508225026 | 76 | 188 | 8.7 | 11.3 | 0.00 | 0.42 | 0.42 | 68 | 1008.5 |
| 20260508224526 | 76 | 191 | 7.8 | 11.3 | 0.00 | 0.42 | 0.42 | 68 | 1008.5 |
| 20260508224026 | 76 | 169 | 5.2 | 11.3 | 0.00 | 0.42 | 0.42 | 68 | 1008.5 |
| 20260508223026 | 77 | 184 | 6.1 | 11.3 | 0.00 | 0.42 | 0.42 | 69 | 1008.6 |
| 20260508222526 | 76 | 169 | 9.6 | 11.3 | 0.00 | 0.42 | 0.42 | 68 | 1008.5 |
| 20260508222026 | 76 | 174 | 7.8 | 10.4 | 0.00 | 0.42 | 0.42 | 67 | 1008.5 |
| 20260508221527 | 77 | 166 | 9.6 | 11.3 | 0.00 | 0.42 | 0.42 | 66 | 1008.5 |
| 20260508220526 | 77 | 164 | 7.8 | 10.4 | 0.00 | 0.42 | 0.42 | 66 | 1008.6 |
| 20260508220026 | 77 | 176 | 7.8 | 10.4 | 0.00 | 0.42 | 0.42 | 66 | 1008.5 |
| 20260508215528 | 77 | 202 | 9.6 | 11.3 | 0.00 | 0.42 | 0.42 | 67 | 1008.6 |
| 20260508215026 | 77 | 177 | 10.4 | 11.3 | 0.00 | 0.42 | 0.42 | 65 | 1008.5 |
| 20260508214527 | 77 | 149 | 9.6 | 10.4 | 0.00 | 0.42 | 0.42 | 65 | 1008.6 |
| 20260508213526 | 77 | 155 | 8.7 | 11.3 | 0.00 | 0.42 | 0.42 | 65 | 1008.7 |
| 20260508213026 | 76 | 143 | 8.7 | 11.3 | 0.00 | 0.42 | 0.42 | 66 | 1008.8 |
| 20260508212526 | 76 | 175 | 7.8 | 11.3 | 0.00 | 0.42 | 0.42 | 65 | 1008.9 |
| 20260508212027 | 76 | 159 | 9.6 | 11.3 | 0.00 | 0.42 | 0.42 | 65 | 1008.9 |
| 20260508211026 | 76 | 166 | 7.8 | 11.3 | 0.00 | 0.42 | 0.42 | 66 | 1008.9 |
| 20260508210526 | 76 | 154 | 9.6 | 10.4 | 0.00 | 0.42 | 0.42 | 65 | 1009.0 |
| 20260508210026 | 76 | 213 | 6.1 | 11.3 | 0.00 | 0.42 | 0.42 | 66 | 1009.0 |
| 20260508205527 | 75 | 172 | 9.6 | 12.2 | 0.00 | 0.42 | 0.42 | 65 | 1009.1 |
| 20260508205026 | 76 | 195 | 7.8 | 12.2 | 0.00 | 0.42 | 0.42 | 67 | 1009.2 |
| 20260508204526 | 76 | 179 | 8.7 | 15.6 | 0.00 | 0.42 | 0.42 | 65 | 1009.4 |
| 20260508204026 | 75 | 217 | 11.3 | 16.5 | 0.00 | 0.42 | 0.42 | 67 | 1009.6 |
| 20260508203526 | 75 | 214 | 12.2 | 16.5 | 0.00 | 0.42 | 0.42 | 67 | 1009.5 |
| 20260508203026 | 75 | 219 | 13.9 | 15.6 | 0.00 | 0.42 | 0.42 | 67 | 1009.7 |
| 20260508202526 | 75 | 193 | 10.4 | 15.6 | 0.00 | 0.42 | 0.42 | 67 | 1009.9 |
| 20260508202026 | 75 | 197 | 12.2 | 13.9 | 0.00 | 0.42 | 0.42 | 67 | 1009.8 |
| 20260508201526 | 76 | 203 | 13.0 | 13.0 | 0.00 | 0.42 | 0.42 | 67 | 1010.0 |
| 20260508201027 | 76 | 0 | 0.0 | 12.2 | 0.00 | 0.42 | 0.42 | 67 | 1010.2 |
| 20260508200026 | 76 | 213 | 12.2 | 12.2 | 0.00 | 0.42 | 0.42 | 64 | 1010.4 |
| 20260508195527 | 76 | 160 | 7.0 | 9.6 | 0.00 | 0.42 | 0.42 | 65 | 1010.3 |
| 20260508195026 | 76 | 0 | 0.0 | 9.6 | 0.00 | 0.42 | 0.42 | 65 | 1010.4 |
| 20260508194527 | 75 | 155 | 7.8 | 8.7 | 0.00 | 0.42 | 0.42 | 66 | 1010.5 |
| 20260508194027 | 74 | 194 | 6.1 | 9.6 | 0.00 | 0.42 | 0.42 | 67 | 1010.7 |
| 20260508193526 | 74 | 172 | 7.8 | 9.6 | 0.00 | 0.42 | 0.42 | 67 | 1010.8 |
| 20260508193026 | 74 | 146 | 7.8 | 9.6 | 0.00 | 0.42 | 0.42 | 68 | 1010.9 |
| 20260508192527 | 75 | 202 | 6.1 | 12.2 | 0.00 | 0.42 | 0.42 | 69 | 1010.9 |
| 20260508192026 | 75 | 205 | 7.0 | 13.0 | 0.00 | 0.42 | 0.42 | 69 | 1010.9 |
| 20260508191527 | 75 | 217 | 9.6 | 13.0 | 0.00 | 0.42 | 0.42 | 67 | 1010.9 |
| 20260508191026 | 75 | 223 | 6.1 | 12.2 | 0.00 | 0.42 | 0.42 | 65 | 1010.9 |
| 20260508190526 | 75 | 228 | 7.8 | 9.6 | 0.00 | 0.42 | 0.42 | 65 | 1010.9 |
| 20260508190027 | 75 | 178 | 7.8 | 9.6 | 0.00 | 0.42 | 0.42 | 64 | 1010.9 |
| 20260508185526 | 75 | 180 | 8.7 | 11.3 | 0.00 | 0.42 | 0.42 | 66 | 1010.9 |
| 20260508185026 | 75 | 202 | 7.0 | 12.2 | 0.00 | 0.42 | 0.42 | 66 | 1011.1 |
| 20260508184526 | 75 | 156 | 8.7 | 12.2 | 0.00 | 0.42 | 0.42 | 65 | 1011.1 |
| 20260508184026 | 75 | 0 | 0.0 | 9.6 | 0.00 | 0.42 | 0.42 | 66 | 1011.2 |
| 20260508183527 | 75 | 139 | 3.5 | 9.6 | 0.00 | 0.42 | 0.42 | 65 | 1011.2 |
| 20260508183026 | 75 | 0 | 0.0 | 9.6 | 0.00 | 0.42 | 0.42 | 64 | 1011.1 |
| 20260508182526 | 74 | 133 | 7.8 | 10.4 | 0.00 | 0.42 | 0.42 | 67 | 1011.2 |
| 20260508182026 | 74 | 0 | 0.0 | 10.4 | 0.00 | 0.42 | 0.42 | 65 | 1011.3 |
| 20260508181526 | 74 | 0 | 0.0 | 11.3 | 0.00 | 0.42 | 0.42 | 65 | 1011.4 |
| 20260508180026 | 73 | 168 | 6.1 | 8.7 | 0.00 | 0.42 | 0.42 | 67 | 1011.8 |
| 20260508175526 | 73 | 212 | 7.8 | 8.7 | 0.00 | 0.42 | 0.42 | 67 | 1012.0 |
| 20260508175026 | 72 | 239 | 5.2 | 11.3 | 0.00 | 0.42 | 0.42 | 68 | 1012.0 |
| 20260508174526 | 72 | 161 | 4.3 | 11.3 | 0.00 | 0.42 | 0.42 | 68 | 1012.1 |
| 20260508174026 | 72 | 133 | 8.7 | 8.7 | 0.00 | 0.42 | 0.42 | 68 | 1012.3 |
| 20260508173527 | 72 | 220 | 7.8 | 8.7 | 0.00 | 0.42 | 0.42 | 69 | 1012.4 |
| 20260508173027 | 71 | 131 | 8.7 | 9.6 | 0.00 | 0.42 | 0.42 | 69 | 1012.4 |
| 20260508172526 | 72 | 199 | 4.3 | 9.6 | 0.00 | 0.42 | 0.42 | 70 | 1012.5 |
| 20260508172026 | 71 | 149 | 4.3 | 7.8 | 0.00 | 0.42 | 0.42 | 69 | 1012.5 |
| 20260508171526 | 71 | 131 | 5.2 | 7.0 | 0.00 | 0.42 | 0.42 | 74 | 1012.7 |
| 20260508171026 | 71 | 0 | 0.0 | 10.4 | 0.00 | 0.42 | 0.42 | 70 | 1012.6 |
| 20260508170527 | 69 | 209 | 5.2 | 10.4 | 0.00 | 0.42 | 0.42 | 72 | 1012.9 |
| 20260508170026 | 69 | 196 | 6.1 | 10.4 | 0.00 | 0.42 | 0.42 | 73 | 1012.7 |
| 20260508165526 | 69 | 0 | 0.0 | 8.7 | 0.00 | 0.42 | 0.42 | 71 | 1013.0 |
| 20260508165026 | 69 | 187 | 7.0 | 8.7 | 0.00 | 0.42 | 0.42 | 69 | 1013.1 |
| 20260508164526 | 69 | 157 | 5.2 | 9.6 | 0.00 | 0.42 | 0.42 | 70 | 1013.2 |
| 20260508164027 | 69 | 147 | 4.3 | 9.6 | 0.00 | 0.42 | 0.42 | 70 | 1013.2 |
| 20260508163527 | 69 | 0 | 0.0 | 9.6 | 0.00 | 0.42 | 0.42 | 68 | 1013.3 |
| 20260508163026 | 69 | 198 | 5.2 | 9.6 | 0.00 | 0.42 | 0.42 | 69 | 1013.3 |
| 20260508162526 | 69 | 162 | 6.1 | 9.6 | 0.00 | 0.42 | 0.42 | 67 | 1013.5 |
| 20260508162026 | 68 | 195 | 6.1 | 7.8 | 0.00 | 0.42 | 0.42 | 66 | 1013.5 |
| 20260508161026 | 68 | 0 | 0.0 | 8.7 | 0.00 | 0.42 | 0.42 | 67 | 1013.5 |
| 20260508160026 | 67 | 166 | 7.8 | 7.8 | 0.00 | 0.42 | 0.42 | 71 | 1013.6 |
| 20260508155526 | 66 | 0 | 0.0 | 7.8 | 0.00 | 0.42 | 0.42 | 71 | 1013.7 |
| 20260508155026 | 66 | 155 | 6.1 | 7.8 | 0.00 | 0.42 | 0.42 | 71 | 1013.8 |
| 20260508154527 | 66 | 141 | 7.0 | 7.8 | 0.00 | 0.42 | 0.42 | 71 | 1013.9 |
| 20260508154027 | 66 | 181 | 5.2 | 8.7 | 0.00 | 0.42 | 0.42 | 72 | 1014.0 |
| 20260508153026 | 67 | 163 | 7.0 | 8.7 | 0.00 | 0.42 | 0.42 | 68 | 1014.0 |
| 20260508152526 | 67 | 175 | 5.2 | 7.0 | 0.00 | 0.42 | 0.42 | 68 | 1014.2 |
| 20260508152026 | 66 | 193 | 3.5 | 7.8 | 0.00 | 0.42 | 0.42 | 73 | 1014.4 |
| 20260508151526 | 66 | 0 | 0.0 | 8.7 | 0.00 | 0.42 | 0.42 | 73 | 1014.4 |
| 20260508151026 | 66 | 124 | 3.5 | 9.6 | 0.00 | 0.42 | 0.42 | 77 | 1014.5 |
| 20260508150527 | 65 | 159 | 5.2 | 9.6 | 0.00 | 0.42 | 0.42 | 77 | 1014.5 |
| 20260508150026 | 65 | 146 | 6.1 | 7.8 | 0.00 | 0.42 | 0.42 | 76 | 1014.5 |
| 20260508145526 | 65 | 163 | 6.1 | 10.4 | 0.00 | 0.42 | 0.42 | 80 | 1014.5 |
| 20260508145026 | 65 | 0 | 0.0 | 10.4 | 0.00 | 0.42 | 0.42 | 79 | 1014.4 |
| 20260508144526 | 65 | 0 | 0.0 | 12.2 | 0.00 | 0.42 | 0.42 | 81 | 1014.5 |
| 20260508143526 | 64 | 0 | 0.0 | 10.4 | 0.00 | 0.42 | 0.42 | 80 | 1014.5 |
| 20260508143027 | 64 | 122 | 5.2 | 9.6 | 0.00 | 0.42 | 0.42 | 82 | 1014.5 |
| 20260508142526 | 64 | 0 | 0.0 | 8.7 | 0.00 | 0.42 | 0.42 | 80 | 1014.5 |
| 20260508141526 | 64 | 0 | 0.0 | 7.0 | 0.00 | 0.42 | 0.42 | 84 | 1014.6 |
| 20260508141026 | 63 | 0 | 0.0 | 7.8 | 0.00 | 0.42 | 0.42 | 86 | 1014.7 |
| 20260508140027 | 62 | 159 | 6.1 | 8.7 | 0.00 | 0.42 | 0.42 | 88 | 1014.7 |
| 20260508135527 | 62 | 150 | 7.0 | 8.7 | 0.00 | 0.42 | 0.42 | 87 | 1014.8 |
| 20260508135026 | 62 | 182 | 6.1 | 7.8 | 0.00 | 0.42 | 0.42 | 88 | 1014.9 |
| 20260508134026 | 62 | 0 | 0.0 | 8.7 | 0.00 | 0.42 | 0.42 | 89 | 1014.7 |
| 20260508133526 | 61 | 105 | 7.8 | 8.7 | 0.00 | 0.42 | 0.42 | 91 | 1014.8 |
| 20260508132526 | 61 | 98 | 6.1 | 8.7 | 0.00 | 0.42 | 0.42 | 92 | 1015.0 |
| 20260508131526 | 61 | 80 | 2.6 | 8.7 | 0.00 | 0.42 | 0.42 | 93 | 1015.0 |
| 20260508131026 | 60 | 104 | 7.0 | 8.7 | 0.00 | 0.42 | 0.42 | 92 | 1015.0 |
| 20260508130527 | 60 | 113 | 4.3 | 6.1 | 0.00 | 0.42 | 0.42 | 93 | 1014.9 |
| 20260508130027 | 60 | 128 | 4.3 | 5.2 | 0.00 | 0.42 | 0.42 | 93 | 1015.0 |
| 20260508125027 | 60 | 175 | 4.3 | 5.2 | 0.00 | 0.42 | 0.42 | 94 | 1014.9 |
| 20260508124527 | 60 | 161 | 3.5 | 7.8 | 0.05 | 0.42 | 0.42 | 94 | 1014.8 |
| 20260508124027 | 60 | 175 | 4.3 | 9.6 | 0.10 | 0.42 | 0.42 | 94 | 1014.6 |
| 20260508123026 | 60 | 138 | 7.8 | 9.6 | 0.21 | 0.42 | 0.42 | 95 | 1014.4 |
| 20260508122526 | 59 | 127 | 8.7 | 9.6 | 0.30 | 0.42 | 0.42 | 95 | 1014.4 |
| 20260508122027 | 59 | 133 | 7.8 | 8.7 | 0.35 | 0.42 | 0.42 | 95 | 1014.5 |
| 20260508120527 | 59 | 0 | 0.0 | 7.0 | 0.36 | 0.42 | 0.42 | 95 | 1014.5 |
| 20260508120027 | 59 | 0 | 0.0 | 10.4 | 0.36 | 0.42 | 0.42 | 96 | 1014.6 |
| 20260508115527 | 59 | 165 | 4.3 | 10.4 | 0.36 | 0.42 | 0.42 | 97 | 1014.5 |
| 20260508115026 | 59 | 144 | 7.0 | 9.6 | 0.36 | 0.42 | 0.42 | 97 | 1014.4 |
| 20260508114027 | 59 | 157 | 5.2 | 9.6 | 0.26 | 0.32 | 0.32 | 96 | 1014.7 |
| 20260508113527 | 59 | 225 | 7.0 | 10.4 | 0.15 | 0.21 | 0.21 | 95 | 1015.2 |
| 20260508113027 | 59 | 189 | 6.1 | 10.4 | 0.15 | 0.21 | 0.21 | 95 | 1014.7 |
| 20260508112527 | 59 | 194 | 10.4 | 10.4 | 0.06 | 0.12 | 0.12 | 93 | 1014.5 |
| 20260508112026 | 60 | 210 | 7.8 | 9.6 | 0.01 | 0.07 | 0.07 | 91 | 1014.5 |
| 20260508111527 | 60 | 168 | 7.0 | 9.6 | 0.00 | 0.06 | 0.06 | 89 | 1014.4 |
| 20260508111027 | 60 | 221 | 7.8 | 9.6 | 0.00 | 0.06 | 0.06 | 89 | 1014.9 |
| 20260508105026 | 60 | 187 | 3.5 | 7.8 | 0.00 | 0.06 | 0.06 | 89 | 1014.1 |
| 20260508104027 | 60 | 140 | 6.1 | 9.6 | 0.06 | 0.06 | 0.06 | 89 | 1013.7 |
| 20260508103527 | 60 | 127 | 3.5 | 6.1 | 0.06 | 0.06 | 0.06 | 91 | 1014.0 |
| 20260508103027 | 60 | 182 | 4.3 | 6.1 | 0.06 | 0.06 | 0.06 | 91 | 1014.2 |
| 20260508102527 | 60 | 194 | 3.5 | 6.1 | 0.06 | 0.06 | 0.06 | 90 | 1014.1 |
| 20260508102026 | 60 | 196 | 3.5 | 6.1 | 0.06 | 0.06 | 0.06 | 90 | 1014.1 |
| 20260508101527 | 60 | 167 | 3.5 | 7.0 | 0.06 | 0.06 | 0.06 | 90 | 1014.0 |
| 20260508101026 | 60 | 138 | 4.3 | 7.0 | 0.06 | 0.06 | 0.06 | 90 | 1013.9 |
| 20260508100527 | 60 | 126 | 4.3 | 6.1 | 0.06 | 0.06 | 0.06 | 90 | 1014.1 |
| 20260508100027 | 59 | 203 | 5.2 | 7.0 | 0.06 | 0.06 | 0.06 | 89 | 1014.4 |
| 20260508095527 | 60 | 183 | 4.3 | 7.0 | 0.06 | 0.06 | 0.06 | 89 | 1014.2 |
| 20260508094527 | 60 | 235 | 6.1 | 6.1 | 0.00 | 0.00 | 0.00 | 84 | 1014.6 |
| 20260508094027 | 60 | 187 | 1.7 | 2.6 | 0.00 | 0.00 | 0.00 | 84 | 1014.3 |
| 20260508093527 | 60 | 91 | 1.7 | 2.6 | 0.00 | 0.00 | 0.00 | 83 | 1014.1 |
| 20260508093027 | 60 | 144 | 1.7 | 4.3 | 0.00 | 0.00 | 0.00 | 83 | 1014.1 |
| 20260508092527 | 60 | 201 | 0.9 | 4.3 | 0.00 | 0.00 | 0.00 | 83 | 1014.2 |
| 20260508092026 | 60 | 138 | 4.3 | 4.3 | 0.00 | 0.00 | 0.00 | 83 | 1014.1 |
| 20260508091527 | 60 | 177 | 3.5 | 6.1 | 0.00 | 0.00 | 0.00 | 83 | 1014.1 |
| 20260508091027 | 60 | 208 | 4.3 | 6.1 | 0.00 | 0.00 | 0.00 | 83 | 1014.1 |
| 20260508090028 | 60 | 190 | 3.5 | 8.7 | 0.00 | 0.00 | 0.00 | 83 | 1013.9 |
| 20260508085027 | 60 | 152 | 4.3 | 7.8 | 0.00 | 0.00 | 0.00 | 83 | 1013.8 |
| 20260508084526 | 60 | 139 | 4.3 | 5.2 | 0.00 | 0.00 | 0.00 | 83 | 1013.9 |
| 20260508083027 | 61 | 169 | 4.3 | 6.1 | 0.00 | 0.00 | 0.00 | 80 | 1014.2 |
| 20260508082527 | 61 | 170 | 3.5 | 5.2 | 0.00 | 0.00 | 0.00 | 78 | 1014.3 |
| 20260508082027 | 61 | 135 | 3.5 | 5.2 | 0.00 | 0.00 | 0.00 | 77 | 1014.3 |
| 20260508081527 | 61 | 148 | 4.3 | 5.2 | 0.00 | 0.00 | 0.00 | 77 | 1014.4 |
| 20260508081026 | 61 | 157 | 4.3 | 4.3 | 0.00 | 0.00 | 0.00 | 78 | 1014.5 |
| 20260508080527 | 61 | 143 | 4.3 | 4.3 | 0.00 | 0.00 | 0.00 | 79 | 1014.4 |
| 20260508080027 | 60 | 161 | 3.5 | 5.2 | 0.00 | 0.00 | 0.00 | 79 | 1014.5 |
| 20260508075527 | 60 | 158 | 3.5 | 5.2 | 0.00 | 0.00 | 0.00 | 81 | 1014.7 |
| 20260508074527 | 60 | 228 | 4.3 | 5.2 | 0.00 | 0.00 | 0.00 | 79 | 1014.9 |
| 20260508073527 | 60 | 196 | 3.5 | 6.1 | 0.00 | 0.00 | 0.00 | 80 | 1014.9 |
| 20260508073027 | 60 | 182 | 3.5 | 6.1 | 0.00 | 0.00 | 0.00 | 79 | 1015.1 |
| 20260508072527 | 60 | 203 | 5.2 | 7.0 | 0.00 | 0.00 | 0.00 | 81 | 1015.4 |
| 20260508072027 | 59 | 205 | 4.3 | 7.8 | 0.00 | 0.00 | 0.00 | 83 | 1015.5 |
| 20260508071527 | 59 | 222 | 6.1 | 7.8 | 0.00 | 0.00 | 0.00 | 85 | 1015.7 |
| 20260508071026 | 59 | 230 | 7.8 | 7.8 | 0.00 | 0.00 | 0.00 | 84 | 1015.7 |
| 20260508070527 | 59 | 244 | 6.1 | 7.0 | 0.00 | 0.00 | 0.00 | 83 | 1015.6 |
| 20260508070026 | 59 | 232 | 2.6 | 3.5 | 0.00 | 0.00 | 0.00 | 82 | 1015.4 |
| 20260508065527 | 59 | 235 | 3.5 | 5.2 | 0.00 | 0.00 | 0.00 | 82 | 1015.5 |
| 20260508065027 | 59 | 197 | 1.7 | 6.1 | 0.00 | 0.00 | 0.00 | 82 | 1015.3 |
| 20260508064527 | 59 | 219 | 4.3 | 6.1 | 0.00 | 0.00 | 0.00 | 81 | 1015.7 |
| 20260508064027 | 60 | 220 | 5.2 | 5.2 | 0.00 | 0.00 | 0.00 | 81 | 1015.8 |
| 20260508063027 | 59 | 229 | 3.5 | 4.3 | 0.00 | 0.00 | 0.00 | 81 | 1015.8 |
| 20260508062527 | 60 | 230 | 4.3 | 4.3 | 0.00 | 0.00 | 0.00 | 80 | 1016.0 |
| 20260508062027 | 60 | 217 | 3.5 | 3.5 | 0.00 | 0.00 | 0.00 | 80 | 1015.9 |
| 20260508061527 | 60 | 199 | 1.7 | 5.2 | 0.00 | 0.00 | 0.00 | 80 | 1015.8 |
| 20260508061027 | 60 | 180 | 2.6 | 5.2 | 0.00 | 0.00 | 0.00 | 81 | 1015.9 |
| 20260508060527 | 60 | 146 | 4.3 | 5.2 | 0.00 | 0.00 | 0.00 | 81 | 1016.0 |
| 20260508060028 | 59 | 165 | 2.6 | 3.5 | 0.00 | 0.00 | 0.00 | 81 | 1016.1 |
| 20260508055027 | 59 | 166 | 0.9 | 1.7 | 0.00 | 0.00 | 0.00 | 81 | 1016.1 |
| 20260508054527 | 59 | 195 | 0.9 | 1.7 | 0.00 | 0.00 | 0.00 | 81 | 1016.1 |
| 20260508054027 | 59 | 122 | 1.7 | 2.6 | 0.00 | 0.00 | 0.00 | 81 | 1016.0 |
| 20260508053527 | 60 | 103 | 0.9 | 2.6 | 0.00 | 0.00 | 0.00 | 81 | 1016.0 |
| 20260508052527 | 61 | 136 | 2.6 | 2.6 | 0.00 | 0.00 | 0.00 | 77 | 1015.8 |
| 20260508052027 | 61 | 173 | 2.6 | 2.6 | 0.00 | 0.00 | 0.00 | 77 | 1015.8 |
| 20260508050527 | 61 | 236 | 3.5 | 3.5 | 0.00 | 0.00 | 0.00 | 77 | 1015.8 |
| 20260508045027 | 61 | 221 | 4.3 | 4.3 | 0.00 | 0.00 | 0.00 | 78 | 1016.0 |
| 20260508044527 | 61 | 220 | 4.3 | 4.3 | 0.00 | 0.00 | 0.00 | 78 | 1016.0 |
| 20260508044027 | 61 | 244 | 3.5 | 5.2 | 0.00 | 0.00 | 0.00 | 77 | 1016.1 |
| 20260508043027 | 61 | 233 | 4.3 | 5.2 | 0.00 | 0.00 | 0.00 | 75 | 1016.0 |
| 20260508042527 | 61 | 234 | 3.5 | 4.3 | 0.00 | 0.00 | 0.00 | 75 | 1015.8 |
| 20260508042027 | 61 | 217 | 3.5 | 4.3 | 0.00 | 0.00 | 0.00 | 75 | 1015.9 |
| 20260508041527 | 61 | 197 | 3.5 | 4.3 | 0.00 | 0.00 | 0.00 | 75 | 1015.8 |
| 20260508041027 | 61 | 216 | 3.5 | 4.3 | 0.00 | 0.00 | 0.00 | 75 | 1015.8 |